This is the latest recevied weather packets stored in our database for station/object KB3AWQ. If no packets are shown the sender has not sent any weather packets the latest 10 day(s).
| Time | Temp. | Humidity | Pressure | Rain* | Wind** | Luminosity | Snow |
|---|---|---|---|---|---|---|---|
| 1777748667 | 11.67° C | 53% | 1013.7 hPa | 0 mm | - | 129 W/m² | - |
| 1777748366 | 11.67° C | 51% | 1013.7 hPa | 0 mm | - | 115 W/m² | - |
| 1777748066 | 11.67° C | 53% | 1013.7 hPa | 0 mm | - | 117 W/m² | - |
| 1777747767 | 11.67° C | 52% | 1013.7 hPa | 0 mm | - | 115 W/m² | - |
| 1777747466 | 11.67° C | 51% | 1013.7 hPa | 0 mm | - | 109 W/m² | - |
| 1777747167 | 11.67° C | 51% | 1013.7 hPa | 0 mm | - | 150 W/m² | - |
| 1777746867 | 11.67° C | 49% | 1013.5 hPa | 0 mm | - | 258 W/m² | - |
| 1777746566 | 11.67° C | 50% | 1013.5 hPa | 0 mm | - | 604 W/m² | - |
| 1777746266 | 11.67° C | 49% | 1013.5 hPa | 0 mm | - | 553 W/m² | - |
| 1777745966 | 11.67° C | 51% | 1013.7 hPa | 0 mm | - | 181 W/m² | - |
| 1777745676 | 11.67° C | 51% | 1013.7 hPa | 0 mm | - | 239 W/m² | - |
| 1777745366 | 11.67° C | 49% | 1013.7 hPa | 0 mm | - | 245 W/m² | - |
| 1777745066 | 11.67° C | 50% | 1013.7 hPa | 0 mm | - | 285 W/m² | - |
| 1777744766 | 11.67° C | 55% | 1013.7 hPa | 0 mm | - | 400 W/m² | - |
| 1777744468 | 11.11° C | 53% | 1013.7 hPa | 0 mm | - | 297 W/m² | - |
| 1777744167 | 11.11° C | 51% | 1013.8 hPa | 0 mm | - | 357 W/m² | - |
| 1777743867 | 11.11° C | 53% | 1013.8 hPa | 0 mm | - | 373 W/m² | - |
| 1777743567 | 11.11° C | 52% | 1013.8 hPa | 0 mm | - | 397 W/m² | - |
| 1777743266 | 11.11° C | 54% | 1013.8 hPa | 0 mm | - | 214 W/m² | - |
| 1777742967 | 11.11° C | 55% | 1013.8 hPa | 0 mm | - | 161 W/m² | - |
| 1777742666 | 11.11° C | 53% | 1013.8 hPa | 0 mm | - | 176 W/m² | - |
| 1777742366 | 11.11° C | 52% | 1013.7 hPa | 0 mm | - | 154 W/m² | - |
| 1777742066 | 11.11° C | 53% | 1013.7 hPa | 0 mm | - | 136 W/m² | - |
| 1777741767 | 11.11° C | 52% | 1013.7 hPa | 0 mm | - | 175 W/m² | - |
| 1777741466 | 11.11° C | 52% | 1013.8 hPa | 0 mm | - | 248 W/m² | - |
* Rain latest hour (hover to see other rain measurements)
** Current wind speed in m/s (hover to see current wind gust speed)